Terminal Aerodrome Forecast
Issued by NWS Knoxville/Tri Cities, TN

Home | Current Version | Previous Version | Text Only | Print | Product List | Glossary On
Versions: 1 2 3 4 5 6 7 8 9 10 11 12 13 14 15 16 17 18 19 20 21 22 23 24 25 26 27 28 29 30 31 32
000
FTUS44 KMRX 012324
TAFCHA
TAF
KCHA 012324Z 0200/0224 05005KT P6SM SCT250
     FM020800 18005KT P6SM SCT040
     FM021300 17010KT P6SM VCTS BKN025CB
     FM022100 19010G20KT P6SM VCTS BKN030CB=

USA.gov is the U.S. government's official web portal to all federal, state and local government web resources and services.